Home   Weather   Nouadhibou   Past weeks

Flag for Mauritania Past Weather in Nouadhibou, Mauritania — Yesterday and Last 2 Weeks

Now
66 °F

Clear.


Feels Like: 66 °F
Forecast: N/A
Wind: 10 mph from North

Location: Nouadhibou Airport

Current Time: Nov 20, 2017 at 10:59:50 pm

Latest Report: Nov 20, 2017 at 10:00 pm


Visibility: 5 mi

Pressure: 29.98 "Hg

Humidity: 88%

Dew Point: 63 °F

Location of NouadhibouLocation

Past Weather in Nouadhibou — Graph

°F

Nouadhibou Temperature Yesterday

Maximum temperature yesterday: 79 °F (at 2:00 pm)
Minimum temperature yesterday: 63 °F (at 8:22 am)
Average temperature yesterday: 69 °F

High & Low Weather Summary for the Past Weeks

 TemperatureHumidityPressure
High97 °F (Nov 11, 5:00 pm)100% (Nov 8, 4:00 am)30.04 "Hg (Nov 8, 4:00 am)
Low61 °F (Nov 20, 7:20 am)12% (Nov 11, 5:00 pm)29.83 "Hg (Nov 6, 3:00 pm)
Average72 °F66%29.94 "Hg
* Reported Nov 5 10:00 pm — Nov 20 10:00 pm, Nouadhibou. Weather by CustomWeather, © 2017

Note: Actual official high and low records may vary slightly from our data, if they occured in-between our weather recording intervals... More about our weather records

Advertising

Nouadhibou Weather History for the Previous 24 Hours

Scroll right to see more
 ConditionsComfort  
Time TempWeatherWind HumidityBarometerVisibility
10:00 pm
Mon, Nov 20
66 °FClear.10 mph88%29.98 "Hg5 mi
9:00 pm66 °FClear.8 mph88%29.95 "Hg5 mi
8:00 pm66 °FClear.10 mph88%29.92 "Hg5 mi
7:00 pm68 °FClear.13 mph83%29.92 "Hg5 mi
6:00 pm70 °FClear.12 mph78%29.92 "Hg5 mi
5:00 pm72 °FClear.8 mph69%29.89 "Hg5 mi
4:00 pm73 °FClear.8 mph69%29.89 "Hg5 mi
3:00 pm73 °FClear.8 mph69%29.92 "Hg5 mi
2:00 pm79 °FClear.6 mph39%29.92 "Hg5 mi
1:00 pm75 °FPassing clouds.7 mph57%29.95 "Hg5 mi
12:00 pm70 °FPassing clouds.12 mph78%29.98 "Hg4 mi
11:32 am70 °FPassing clouds.10 mph73%29.98 "Hg4 mi
11:00 am66 °FPartly sunny.12 mph88%30.01 "Hg4 mi
10:32 am64 °FPartly sunny.10 mph88%29.98 "Hg4 mi
10:00 am63 °FFog.12 mph94%29.98 "Hg2 mi
9:15 am61 °FFog.13 mph94%29.98 "Hg2 mi
9:00 am61 °FFog.6 mph94%29.98 "Hg1 mi
8:21 am61 °FFog.7 mph94%29.95 "Hg1 mi
8:00 am61 °FFog.7 mph94%29.95 "Hg1 mi
7:20 am61 °FFog.9 mph94%29.95 "Hg1 mi
7:00 am63 °FPassing clouds.9 mph94%29.95 "Hg5 mi
6:00 am63 °FPassing clouds.9 mph94%29.95 "Hg5 mi
5:00 am63 °FPassing clouds.8 mph94%29.92 "Hg5 mi
4:00 am64 °FPassing clouds.9 mph88%29.92 "Hg5 mi
3:00 am64 °FPassing clouds.13 mph88%29.95 "Hg5 mi
2:00 am66 °FPassing clouds.13 mph88%29.95 "Hg5 mi
1:00 am66 °FClear.10 mph88%29.95 "Hg5 mi
12:00 am66 °FClear.12 mph83%29.95 "Hg5 mi
11:00 pm
Sun, Nov 19
66 °FClear.12 mph88%29.95 "Hg5 mi
10:00 pm68 °FClear.12 mph78%29.95 "Hg5 mi
Weather by CustomWeather, © 2017

See weather overview